Salem, OR

8:49 PM PDT on September 26, 2016 (GMT -0700)
McNary

Weather History for KSLE - September, 2012

Change the Weather History Date:

Sunday, September 30, 2012

  Actual Average Record
Temperature  
Mean Temperature 59 °F 58 °F  
Max Temperature 76 °F 72 °F 90 °F (1975)
Min Temperature 42 °F 45 °F 33 °F (1983)
Degree Days  
Heating Degree Days 6 7  
Month to date heating degree days 67 109  
Since 1 July heating degree days 101 165  
Cooling Degree Days 0 0  
Month to date cooling degree days 46 37  
Year to date cooling degree days 317 289  
Growing Degree Days 8 (Base 50)    
Moisture  
Dew Point 42 °F    
Average Humidity 59    
Maximum Humidity 86    
Minimum Humidity 31    
Precipitation  
Precipitation 0.00 in 0.06 in 1.29 in (1951)
Month to date precipitation 0.04 1.28  
Year to date precipitation 32.14 23.28  
Snow  
Snow 0.00 in - - ()
Month to date snowfall 0.0  
Snow Depth 0.00 in    
Sea Level Pressure  
Sea Level Pressure 30.28 in    
Wind  
Wind Speed 6 mph (North)    
Max Wind Speed 17 mph    
Max Gust Speed 20 mph    
Visibility 10 miles    
Events      
T = Trace of Precipitation, MM = Missing Value Source: NWS Daily Summary

Daily Weather History Graph

Daily Weather History Graph

Search for Another Location

Airport or City:

Trip Planner

Search our weather history database for the weather conditions in past years. The results will help you decide how hot, cold, wet, or windy it might be!

Date:

Astronomy

Sep. 30, 2012 Rise Set
Actual Time 7:09 AM PDT 6:53 PM PDT
Civil Twilight 6:40 AM PDT 7:22 PM PDT
Nautical Twilight 6:06 AM PDT 7:56 PM PDT
Astronomical Twilight 5:31 AM PDT 8:30 PM PDT
Moon 6:55 PM PDT (9/30) 7:49 AM PDT (9/30)
Length of Visible Light 12h 42m
Length of Day
11h 43m
Full, 100% of the Moon is Illuminated
Sep 30
Full
Oct 8
Last Quarter
Oct 15
New
Oct 21
First Quarter
Oct 29
Full

Hourly Weather History & Observations

Time (PDT) Temp. Dew Point Humidity Pressure Visibility Wind Dir Wind Speed Gust Speed Precip Events Conditions
12:56 AM 52.0 °F 43.0 °F 71% 30.25 in 10.0 mi Calm Calm - N/A   Clear
1:56 AM 53.1 °F 43.0 °F 69% 30.27 in 10.0 mi Calm Calm - N/A   Clear
2:56 AM 48.9 °F 43.0 °F 80% 30.28 in 10.0 mi Calm Calm - N/A   Clear
3:56 AM 48.0 °F 42.1 °F 80% 30.28 in 10.0 mi Calm Calm - N/A   Clear
4:56 AM 46.0 °F 41.0 °F 83% 30.28 in 10.0 mi Calm Calm - N/A   Clear
5:56 AM 46.0 °F 41.0 °F 83% 30.29 in 10.0 mi Calm Calm - N/A   Clear
6:56 AM 46.9 °F 42.1 °F 83% 30.30 in 10.0 mi WNW 3.5 mph - N/A   Clear
7:56 AM 46.0 °F 42.1 °F 86% 30.32 in 10.0 mi Calm Calm - N/A   Clear
8:56 AM 54.0 °F 45.0 °F 72% 30.34 in 10.0 mi North 3.5 mph - N/A   Clear
10:56 AM 61.0 °F 46.0 °F 58% 30.34 in 10.0 mi North 8.1 mph - N/A   Clear
11:56 AM 64.9 °F 45.0 °F 48% 30.33 in 10.0 mi North 10.4 mph - N/A   Clear
1:56 PM 73.0 °F 42.1 °F 33% 30.29 in 10.0 mi North 11.5 mph - N/A   Clear
2:56 PM 75.0 °F 42.1 °F 31% 30.27 in 10.0 mi NNE 11.5 mph - N/A   Clear
3:56 PM 75.9 °F 42.1 °F 30% 30.26 in 10.0 mi North 12.7 mph - N/A   Clear
4:56 PM 75.9 °F 42.1 °F 30% 30.25 in 10.0 mi NNE 9.2 mph - N/A   Clear
5:56 PM 73.9 °F 43.0 °F 33% 30.25 in 10.0 mi NNE 10.4 mph - N/A   Clear
7:56 PM 66.9 °F 44.1 °F 44% 30.25 in 10.0 mi North 9.2 mph - N/A   Clear
9:56 PM 64.0 °F 39.0 °F 40% 30.25 in 10.0 mi NNE 9.2 mph - N/A   Clear
10:56 PM 60.1 °F 39.0 °F 46% 30.25 in 10.0 mi North 6.9 mph - N/A   Clear
11:56 PM 57.9 °F 39.0 °F 49% 30.25 in 10.0 mi Calm Calm - N/A   Clear